Year,Month,Day,Hour,Minute,Value (Times are PST for temperature in C)
2012,07,06,00,00,14.20
2012,07,06,00,01,14.20
2012,07,06,00,02,14.20
2012,07,06,00,03,14.20
2012,07,06,00,04,14.10
2012,07,06,00,05,14.10
2012,07,06,00,06,14.10
2012,07,06,00,07,14.00
2012,07,06,00,08,14.00
2012,07,06,00,09,14.00
2012,07,06,00,10,13.90
2012,07,06,00,11,13.90
2012,07,06,00,12,13.90
2012,07,06,00,13,13.90
2012,07,06,00,14,13.90
2012,07,06,00,15,13.80
2012,07,06,00,16,13.80
2012,07,06,00,17,13.80
2012,07,06,00,18,13.70
2012,07,06,00,19,13.70
2012,07,06,00,20,13.70
2012,07,06,00,21,13.70
2012,07,06,00,22,13.70
2012,07,06,00,23,13.70
2012,07,06,00,24,13.60
2012,07,06,00,25,13.60
2012,07,06,00,26,13.60
2012,07,06,00,27,13.60
2012,07,06,00,28,13.50
2012,07,06,00,29,13.50
2012,07,06,00,30,13.50
2012,07,06,00,31,13.40
2012,07,06,00,32,13.40
2012,07,06,00,33,13.40
2012,07,06,00,34,13.30
2012,07,06,00,35,13.30
2012,07,06,00,36,13.30
2012,07,06,00,37,13.30
2012,07,06,00,38,13.30
2012,07,06,00,39,13.30
2012,07,06,00,40,13.20
2012,07,06,00,41,13.20
2012,07,06,00,42,13.20
2012,07,06,00,43,13.10
2012,07,06,00,44,13.10
2012,07,06,00,45,13.10
2012,07,06,00,46,13.10
2012,07,06,00,47,13.00
2012,07,06,00,48,13.00
2012,07,06,00,49,13.00
2012,07,06,00,50,13.00
2012,07,06,00,51,13.00
2012,07,06,00,52,12.90
2012,07,06,00,53,12.90
2012,07,06,00,54,12.90
2012,07,06,00,55,12.90
2012,07,06,00,56,12.90
2012,07,06,00,57,12.90
2012,07,06,00,58,12.80
2012,07,06,00,59,12.80
2012,07,06,01,00,12.80
2012,07,06,01,01,12.80
2012,07,06,01,02,12.80
2012,07,06,01,03,12.80
2012,07,06,01,04,12.80
2012,07,06,01,05,12.80
2012,07,06,01,06,12.80
2012,07,06,01,07,12.80
2012,07,06,01,08,12.70
2012,07,06,01,09,12.70
2012,07,06,01,10,12.70
2012,07,06,01,11,12.70
2012,07,06,01,12,12.70
2012,07,06,01,13,12.70
2012,07,06,01,14,12.70
2012,07,06,01,15,12.60
2012,07,06,01,16,12.60
2012,07,06,01,17,12.60
2012,07,06,01,18,12.60
2012,07,06,01,19,12.60
2012,07,06,01,20,12.50
2012,07,06,01,21,12.50
2012,07,06,01,22,12.50
2012,07,06,01,23,12.50
2012,07,06,01,24,12.40
2012,07,06,01,25,12.40
2012,07,06,01,26,12.40
2012,07,06,01,27,12.40
2012,07,06,01,28,12.30
2012,07,06,01,29,12.30
2012,07,06,01,30,12.30
2012,07,06,01,31,12.30
2012,07,06,01,32,12.30
2012,07,06,01,33,12.30
2012,07,06,01,34,12.30
2012,07,06,01,35,12.20
2012,07,06,01,36,12.20
2012,07,06,01,37,12.20
2012,07,06,01,38,12.20
2012,07,06,01,39,12.20
2012,07,06,01,40,12.10
2012,07,06,01,41,12.10
2012,07,06,01,42,12.10
2012,07,06,01,43,12.10
2012,07,06,01,44,12.00
2012,07,06,01,45,12.00
2012,07,06,01,46,12.00
2012,07,06,01,47,12.00
2012,07,06,01,48,11.90
2012,07,06,01,49,11.90
2012,07,06,01,50,11.90
2012,07,06,01,51,11.90
2012,07,06,01,52,11.90
2012,07,06,01,53,11.90
2012,07,06,01,54,11.90
2012,07,06,01,55,11.90
2012,07,06,01,56,11.90
2012,07,06,01,57,11.90
2012,07,06,01,58,11.80
2012,07,06,01,59,11.80
2012,07,06,02,00,11.80
2012,07,06,02,01,11.80
2012,07,06,02,02,11.80
2012,07,06,02,03,11.80
2012,07,06,02,04,11.80
2012,07,06,02,05,11.80
2012,07,06,02,06,11.80
2012,07,06,02,07,11.80
2012,07,06,02,08,11.80
2012,07,06,02,09,11.80
2012,07,06,02,10,11.80
2012,07,06,02,11,11.80
2012,07,06,02,12,11.80
2012,07,06,02,13,11.80
2012,07,06,02,14,11.80
2012,07,06,02,15,11.80
2012,07,06,02,16,11.80
2012,07,06,02,17,11.80
2012,07,06,02,18,11.80
2012,07,06,02,19,11.80
2012,07,06,02,20,11.80
2012,07,06,02,21,11.80
2012,07,06,02,22,11.80
2012,07,06,02,23,11.80
2012,07,06,02,24,11.80
2012,07,06,02,25,11.80
2012,07,06,02,26,11.80
2012,07,06,02,27,11.80
2012,07,06,02,28,11.80
2012,07,06,02,29,11.70
2012,07,06,02,30,11.70
2012,07,06,02,31,11.70
2012,07,06,02,32,11.70
2012,07,06,02,33,11.70
2012,07,06,02,34,11.70
2012,07,06,02,35,11.70
2012,07,06,02,36,11.70
2012,07,06,02,37,11.60
2012,07,06,02,38,11.60
2012,07,06,02,39,11.60
2012,07,06,02,40,11.60
2012,07,06,02,41,11.60
2012,07,06,02,42,11.60
2012,07,06,02,43,11.60
2012,07,06,02,44,11.60
2012,07,06,02,45,11.60
2012,07,06,02,46,11.60
2012,07,06,02,47,11.60
2012,07,06,02,48,11.60
2012,07,06,02,49,11.60
2012,07,06,02,50,11.60
2012,07,06,02,51,11.60
2012,07,06,02,52,11.50
2012,07,06,02,53,11.40
2012,07,06,02,54,11.40
2012,07,06,02,55,11.40
2012,07,06,02,56,11.40
2012,07,06,02,57,11.40
2012,07,06,02,58,11.40
2012,07,06,02,59,11.40
2012,07,06,03,00,11.40
2012,07,06,03,01,11.40
2012,07,06,03,02,11.40
2012,07,06,03,03,11.40
2012,07,06,03,04,11.40
2012,07,06,03,05,11.40
2012,07,06,03,06,11.40
2012,07,06,03,07,11.40
2012,07,06,03,08,11.40
2012,07,06,03,09,11.30
2012,07,06,03,10,11.30
2012,07,06,03,11,11.30
2012,07,06,03,12,11.30
2012,07,06,03,13,11.30
2012,07,06,03,14,11.30
2012,07,06,03,15,11.20
2012,07,06,03,16,11.20
2012,07,06,03,17,11.20
2012,07,06,03,18,11.20
2012,07,06,03,19,11.20
2012,07,06,03,20,11.20
2012,07,06,03,21,11.20
2012,07,06,03,22,11.10
2012,07,06,03,23,11.10
2012,07,06,03,24,11.10
2012,07,06,03,25,11.10
2012,07,06,03,26,11.10
2012,07,06,03,27,11.10
2012,07,06,03,28,11.10
2012,07,06,03,29,11.10
2012,07,06,03,30,11.10
2012,07,06,03,31,11.10
2012,07,06,03,32,11.10
2012,07,06,03,33,11.10
2012,07,06,03,34,11.10
2012,07,06,03,35,11.10
2012,07,06,03,36,11.10
2012,07,06,03,37,11.10
2012,07,06,03,38,11.10
2012,07,06,03,39,11.10
2012,07,06,03,40,11.10
2012,07,06,03,41,11.10
2012,07,06,03,42,11.10
2012,07,06,03,43,11.10
2012,07,06,03,44,11.10
2012,07,06,03,45,11.10
2012,07,06,03,46,11.10
2012,07,06,03,47,11.10
2012,07,06,03,48,11.10
2012,07,06,03,49,11.00
2012,07,06,03,50,10.90
2012,07,06,03,51,10.90
2012,07,06,03,52,10.90
2012,07,06,03,53,10.90
2012,07,06,03,54,10.90
2012,07,06,03,55,10.90
2012,07,06,03,56,10.90
2012,07,06,03,57,10.90
2012,07,06,03,58,10.90
2012,07,06,03,59,10.90
2012,07,06,04,00,10.90
2012,07,06,04,01,10.90
2012,07,06,04,02,10.90
2012,07,06,04,03,10.90
2012,07,06,04,04,10.90
2012,07,06,04,05,10.90
2012,07,06,04,06,10.90
2012,07,06,04,07,10.90
2012,07,06,04,08,10.90
2012,07,06,04,09,10.90
2012,07,06,04,10,10.90
2012,07,06,04,11,10.90
2012,07,06,04,12,10.90
2012,07,06,04,13,10.90
2012,07,06,04,14,10.90
2012,07,06,04,15,10.90
2012,07,06,04,16,10.80
2012,07,06,04,17,10.80
2012,07,06,04,18,10.80
2012,07,06,04,19,10.80
2012,07,06,04,20,10.80
2012,07,06,04,21,10.70
2012,07,06,04,22,10.70
2012,07,06,04,23,10.70
2012,07,06,04,24,10.70
2012,07,06,04,25,10.70
2012,07,06,04,26,10.60
2012,07,06,04,27,10.60
2012,07,06,04,28,10.60
2012,07,06,04,29,10.60
2012,07,06,04,30,10.60
2012,07,06,04,31,10.60
2012,07,06,04,32,10.60
2012,07,06,04,33,10.60
2012,07,06,04,34,10.50
2012,07,06,04,35,10.40
2012,07,06,04,36,10.40
2012,07,06,04,37,10.40
2012,07,06,04,38,10.40
2012,07,06,04,39,10.40
2012,07,06,04,40,10.40
2012,07,06,04,41,10.40
2012,07,06,04,42,10.40
2012,07,06,04,43,10.40
2012,07,06,04,44,10.40
2012,07,06,04,45,10.40
2012,07,06,04,46,10.40
2012,07,06,04,47,10.40
2012,07,06,04,48,10.40
2012,07,06,04,49,10.40
2012,07,06,04,50,10.30
2012,07,06,04,51,10.30
2012,07,06,04,52,10.30
2012,07,06,04,53,10.30
2012,07,06,04,54,10.30
2012,07,06,04,55,10.30
2012,07,06,04,56,10.30
2012,07,06,04,57,10.30
2012,07,06,04,58,10.30
2012,07,06,04,59,10.30
2012,07,06,05,00,10.30
2012,07,06,05,01,10.30
2012,07,06,05,02,10.30
2012,07,06,05,03,10.20
2012,07,06,05,04,10.20
2012,07,06,05,05,10.20
2012,07,06,05,06,10.20
2012,07,06,05,07,10.20
2012,07,06,05,08,10.20
2012,07,06,05,09,10.20
2012,07,06,05,10,10.20
2012,07,06,05,11,10.20
2012,07,06,05,12,10.10
2012,07,06,05,13,10.10
2012,07,06,05,14,10.10
2012,07,06,05,15,10.10
2012,07,06,05,16,10.10
2012,07,06,05,17,10.10
2012,07,06,05,18,10.10
2012,07,06,05,19,10.10
2012,07,06,05,20,10.00
2012,07,06,05,21,9.90
2012,07,06,05,22,9.90
2012,07,06,05,23,9.90
2012,07,06,05,24,9.90
2012,07,06,05,25,9.90
2012,07,06,05,26,9.90
2012,07,06,05,27,9.90
2012,07,06,05,28,9.90
2012,07,06,05,29,9.90
2012,07,06,05,30,9.90
2012,07,06,05,31,9.90
2012,07,06,05,32,9.90
2012,07,06,05,33,9.90
2012,07,06,05,34,9.90
2012,07,06,05,35,9.90
2012,07,06,05,36,9.90
2012,07,06,05,37,9.90
2012,07,06,05,38,9.80
2012,07,06,05,39,9.80
2012,07,06,05,40,9.80
2012,07,06,05,41,9.80
2012,07,06,05,42,9.80
2012,07,06,05,43,9.80
2012,07,06,05,44,9.80
2012,07,06,05,45,9.80
2012,07,06,05,46,9.80
2012,07,06,05,47,9.80
2012,07,06,05,48,9.80
2012,07,06,05,49,9.80
2012,07,06,05,50,9.80
2012,07,06,05,51,9.80
2012,07,06,05,52,9.80
2012,07,06,05,53,9.80
2012,07,06,05,54,9.80
2012,07,06,05,55,9.80
2012,07,06,05,56,9.80
2012,07,06,05,57,9.80
2012,07,06,05,58,9.80
2012,07,06,05,59,9.80
2012,07,06,06,00,9.80
2012,07,06,06,01,9.80
2012,07,06,06,02,9.90
2012,07,06,06,03,9.90
2012,07,06,06,04,9.90
2012,07,06,06,05,9.90
2012,07,06,06,06,9.90
2012,07,06,06,07,10.00
2012,07,06,06,08,10.10
2012,07,06,06,09,10.10
2012,07,06,06,10,10.10
2012,07,06,06,11,10.10
2012,07,06,06,12,10.20
2012,07,06,06,13,10.20
2012,07,06,06,14,10.20
2012,07,06,06,15,10.30
2012,07,06,06,16,10.30
2012,07,06,06,17,10.40
2012,07,06,06,18,10.40
2012,07,06,06,19,10.40
2012,07,06,06,20,10.40
2012,07,06,06,21,10.50
2012,07,06,06,22,10.60
2012,07,06,06,23,10.60
2012,07,06,06,24,10.60
2012,07,06,06,25,10.70
2012,07,06,06,26,10.70
2012,07,06,06,27,10.80
2012,07,06,06,28,10.80
2012,07,06,06,29,10.90
2012,07,06,06,30,10.90
2012,07,06,06,31,11.00
2012,07,06,06,32,11.10
2012,07,06,06,33,11.10
2012,07,06,06,34,11.10
2012,07,06,06,35,11.20
2012,07,06,06,36,11.20
2012,07,06,06,37,11.30
2012,07,06,06,38,11.30
2012,07,06,06,39,11.40
2012,07,06,06,40,11.40
2012,07,06,06,41,11.50
2012,07,06,06,42,11.60
2012,07,06,06,43,11.70
2012,07,06,06,44,11.80
2012,07,06,06,45,11.80
2012,07,06,06,46,11.90
2012,07,06,06,47,12.00
2012,07,06,06,48,12.10
2012,07,06,06,49,12.20
2012,07,06,06,50,12.30
2012,07,06,06,51,12.40
2012,07,06,06,52,12.50
2012,07,06,06,53,12.60
2012,07,06,06,54,12.60
2012,07,06,06,55,12.70
2012,07,06,06,56,12.80
2012,07,06,06,57,12.80
2012,07,06,06,58,12.90
2012,07,06,06,59,13.00
2012,07,06,07,00,13.10
2012,07,06,07,01,13.10
2012,07,06,07,02,13.20
2012,07,06,07,03,13.30
2012,07,06,07,04,13.30
2012,07,06,07,05,13.30
2012,07,06,07,06,13.40
2012,07,06,07,07,13.40
2012,07,06,07,08,13.50
2012,07,06,07,09,13.50
2012,07,06,07,10,13.60
2012,07,06,07,11,13.60
2012,07,06,07,12,13.60
2012,07,06,07,13,13.70
2012,07,06,07,14,13.70
2012,07,06,07,15,13.70
2012,07,06,07,16,13.80
2012,07,06,07,17,13.80
2012,07,06,07,18,13.90
2012,07,06,07,19,13.90
2012,07,06,07,20,14.00
2012,07,06,07,21,14.00
2012,07,06,07,22,14.10
2012,07,06,07,23,14.10
2012,07,06,07,24,14.20
2012,07,06,07,25,14.20
2012,07,06,07,26,14.20
2012,07,06,07,27,14.30
2012,07,06,07,28,14.40
2012,07,06,07,29,14.50
2012,07,06,07,30,14.50
2012,07,06,07,31,14.60
2012,07,06,07,32,14.60
2012,07,06,07,33,14.70
2012,07,06,07,34,14.70
2012,07,06,07,35,14.80
2012,07,06,07,36,14.80
2012,07,06,07,37,14.80
2012,07,06,07,38,14.90
2012,07,06,07,39,15.00
2012,07,06,07,40,15.00
2012,07,06,07,41,15.10
2012,07,06,07,42,15.10
2012,07,06,07,43,15.10
2012,07,06,07,44,15.20
2012,07,06,07,45,15.30
2012,07,06,07,46,15.30
2012,07,06,07,47,15.30
2012,07,06,07,48,15.30
2012,07,06,07,49,15.40
2012,07,06,07,50,15.40
2012,07,06,07,51,15.50
2012,07,06,07,52,15.50
2012,07,06,07,53,15.60
2012,07,06,07,54,15.60
2012,07,06,07,55,15.70
2012,07,06,07,56,15.80
2012,07,06,07,57,15.90
2012,07,06,07,58,16.10
2012,07,06,07,59,16.20
2012,07,06,08,00,16.30
2012,07,06,08,01,16.30
2012,07,06,08,02,16.40
2012,07,06,08,03,16.50
2012,07,06,08,04,16.60
2012,07,06,08,05,16.70
2012,07,06,08,06,16.80
2012,07,06,08,07,16.80
2012,07,06,08,08,16.90
2012,07,06,08,09,17.00
2012,07,06,08,10,17.00
2012,07,06,08,11,17.10
2012,07,06,08,12,17.30
2012,07,06,08,13,17.30
2012,07,06,08,14,17.40
2012,07,06,08,15,17.50
2012,07,06,08,16,17.50
2012,07,06,08,17,17.60
2012,07,06,08,18,17.60
2012,07,06,08,19,17.60
2012,07,06,08,20,17.60
2012,07,06,08,21,17.50
2012,07,06,08,22,17.50
2012,07,06,08,23,17.50
2012,07,06,08,24,17.50
2012,07,06,08,25,17.50
2012,07,06,08,26,17.50
2012,07,06,08,27,17.50
2012,07,06,08,28,17.50
2012,07,06,08,29,17.60
2012,07,06,08,30,17.60
2012,07,06,08,31,17.60
2012,07,06,08,32,17.70
2012,07,06,08,33,17.80
2012,07,06,08,34,17.90
2012,07,06,08,35,17.90
2012,07,06,08,36,18.10
2012,07,06,08,37,18.20
2012,07,06,08,38,18.20
2012,07,06,08,39,18.30
2012,07,06,08,40,18.30
2012,07,06,08,41,18.30
2012,07,06,08,42,18.30
2012,07,06,08,43,18.30
2012,07,06,08,44,18.30
2012,07,06,08,45,18.20
2012,07,06,08,46,18.20
2012,07,06,08,47,18.10
2012,07,06,08,48,18.10
2012,07,06,08,49,18.10
2012,07,06,08,50,18.20
2012,07,06,08,51,18.20
2012,07,06,08,52,18.30
2012,07,06,08,53,18.40
2012,07,06,08,54,18.50
2012,07,06,08,55,18.50
2012,07,06,08,56,18.50
2012,07,06,08,57,18.30
2012,07,06,08,58,18.30
2012,07,06,08,59,18.20
2012,07,06,09,00,18.20
2012,07,06,09,01,18.20
2012,07,06,09,02,18.20
2012,07,06,09,03,18.20
2012,07,06,09,04,18.30
2012,07,06,09,05,18.30
2012,07,06,09,06,18.40
2012,07,06,09,07,18.40
2012,07,06,09,08,18.50
2012,07,06,09,09,18.40
2012,07,06,09,10,18.40
2012,07,06,09,11,18.40
2012,07,06,09,12,18.50
2012,07,06,09,13,18.60
2012,07,06,09,14,18.60
2012,07,06,09,15,18.70
2012,07,06,09,16,18.70
2012,07,06,09,17,18.70
2012,07,06,09,18,18.70
2012,07,06,09,19,18.80
2012,07,06,09,20,18.90
2012,07,06,09,21,18.90
2012,07,06,09,22,18.90
2012,07,06,09,23,18.90
2012,07,06,09,24,19.00
2012,07,06,09,25,19.10
2012,07,06,09,26,19.10
2012,07,06,09,27,19.10
2012,07,06,09,28,19.20
2012,07,06,09,29,19.30
2012,07,06,09,30,19.30
2012,07,06,09,31,19.20
2012,07,06,09,32,19.20
2012,07,06,09,33,19.10
2012,07,06,09,34,19.10
2012,07,06,09,35,19.10
2012,07,06,09,36,19.10
2012,07,06,09,37,19.10
2012,07,06,09,38,19.20
2012,07,06,09,39,19.20
2012,07,06,09,40,19.30
2012,07,06,09,41,19.30
2012,07,06,09,42,19.40
2012,07,06,09,43,19.30
2012,07,06,09,44,19.30
2012,07,06,09,45,19.30
2012,07,06,09,46,19.20
2012,07,06,09,47,19.20
2012,07,06,09,48,19.20
2012,07,06,09,49,19.30
2012,07,06,09,50,19.40
2012,07,06,09,51,19.40
2012,07,06,09,52,19.50
2012,07,06,09,53,19.60
2012,07,06,09,54,19.50
2012,07,06,09,55,19.50
2012,07,06,09,56,19.40
2012,07,06,09,57,19.30
2012,07,06,09,58,19.20
2012,07,06,09,59,19.10
2012,07,06,10,00,18.90
2012,07,06,10,01,18.80
2012,07,06,10,02,18.80
2012,07,06,10,03,18.80
2012,07,06,10,04,18.80
2012,07,06,10,05,18.80
2012,07,06,10,06,18.90
2012,07,06,10,07,18.90
2012,07,06,10,08,19.00
2012,07,06,10,09,19.10
2012,07,06,10,10,19.20
2012,07,06,10,11,19.20
2012,07,06,10,12,19.20
2012,07,06,10,13,19.20
2012,07,06,10,14,19.20
2012,07,06,10,15,19.20
2012,07,06,10,16,19.30
2012,07,06,10,17,19.30
2012,07,06,10,18,19.40
2012,07,06,10,19,19.60
2012,07,06,10,20,19.70
2012,07,06,10,21,19.80
2012,07,06,10,22,19.80
2012,07,06,10,23,19.80
2012,07,06,10,24,19.70
2012,07,06,10,25,19.70
2012,07,06,10,26,19.60
2012,07,06,10,27,19.60
2012,07,06,10,28,19.60
2012,07,06,10,29,19.50
2012,07,06,10,30,19.60
2012,07,06,10,31,19.60
2012,07,06,10,32,19.70
2012,07,06,10,33,19.70
2012,07,06,10,34,19.70
2012,07,06,10,35,19.80
2012,07,06,10,36,19.90
2012,07,06,10,37,20.00
2012,07,06,10,38,20.10
2012,07,06,10,39,20.10
2012,07,06,10,40,20.10
2012,07,06,10,41,20.00
2012,07,06,10,42,19.90
2012,07,06,10,43,19.70
2012,07,06,10,44,19.70
2012,07,06,10,45,19.70
2012,07,06,10,46,19.70
2012,07,06,10,47,19.80
2012,07,06,10,48,19.90
2012,07,06,10,49,20.10
2012,07,06,10,50,20.30
2012,07,06,10,51,20.40
2012,07,06,10,52,20.50
2012,07,06,10,53,20.60
2012,07,06,10,54,20.70
2012,07,06,10,55,20.80
2012,07,06,10,56,20.90
2012,07,06,10,57,20.90
2012,07,06,10,58,21.00
2012,07,06,10,59,20.80
2012,07,06,11,00,20.60
2012,07,06,11,01,20.40
2012,07,06,11,02,20.20
2012,07,06,11,03,20.10
2012,07,06,11,04,20.00
2012,07,06,11,05,19.90
2012,07,06,11,06,19.90
2012,07,06,11,07,19.90
2012,07,06,11,08,20.00
2012,07,06,11,09,20.10
2012,07,06,11,10,20.20
2012,07,06,11,11,20.40
2012,07,06,11,12,20.30
2012,07,06,11,13,20.20
2012,07,06,11,14,20.10
2012,07,06,11,15,19.80
2012,07,06,11,16,19.60
2012,07,06,11,17,19.50
2012,07,06,11,18,19.40
2012,07,06,11,19,19.40
2012,07,06,11,20,19.40
2012,07,06,11,21,19.40
2012,07,06,11,22,19.40
2012,07,06,11,23,19.30
2012,07,06,11,24,19.30
2012,07,06,11,25,19.40
2012,07,06,11,26,19.30
2012,07,06,11,27,19.20
2012,07,06,11,28,19.20
2012,07,06,11,29,19.20
2012,07,06,11,30,19.30
2012,07,06,11,31,19.30
2012,07,06,11,32,19.20
2012,07,06,11,33,19.20
2012,07,06,11,34,19.40
2012,07,06,11,35,19.50
2012,07,06,11,36,19.60
2012,07,06,11,37,19.60
2012,07,06,11,38,19.80
2012,07,06,11,39,19.90
2012,07,06,11,40,19.90
2012,07,06,11,41,19.90
2012,07,06,11,42,19.90
2012,07,06,11,43,19.80
2012,07,06,11,44,19.70
2012,07,06,11,45,19.70
2012,07,06,11,46,19.70
2012,07,06,11,47,19.60
2012,07,06,11,48,19.60
2012,07,06,11,49,19.70
2012,07,06,11,50,19.80
2012,07,06,11,51,19.90
2012,07,06,11,52,19.90
2012,07,06,11,53,20.00
2012,07,06,11,54,20.10
2012,07,06,11,55,20.20
2012,07,06,11,56,20.20
2012,07,06,11,57,20.20
2012,07,06,11,58,20.30
2012,07,06,11,59,20.40
2012,07,06,12,00,20.50
2012,07,06,12,01,20.60
2012,07,06,12,02,20.60
2012,07,06,12,03,20.60
2012,07,06,12,04,20.50
2012,07,06,12,05,20.50
2012,07,06,12,06,20.50
2012,07,06,12,07,20.60
2012,07,06,12,08,20.60
2012,07,06,12,09,20.60
2012,07,06,12,10,20.70
2012,07,06,12,11,20.70
2012,07,06,12,12,20.70
2012,07,06,12,13,20.60
2012,07,06,12,14,20.50
2012,07,06,12,15,20.50
2012,07,06,12,16,20.50
2012,07,06,12,17,20.50
2012,07,06,12,18,20.60
2012,07,06,12,19,20.60
2012,07,06,12,20,20.60
2012,07,06,12,21,20.70
2012,07,06,12,22,20.80
2012,07,06,12,23,20.90
2012,07,06,12,24,21.00
2012,07,06,12,25,21.10
2012,07,06,12,26,21.20
2012,07,06,12,27,21.30
2012,07,06,12,28,21.30
2012,07,06,12,29,21.30
2012,07,06,12,30,21.30
2012,07,06,12,31,21.40
2012,07,06,12,32,21.40
2012,07,06,12,33,21.40
2012,07,06,12,34,21.40
2012,07,06,12,35,21.40
2012,07,06,12,36,21.30
2012,07,06,12,37,21.30
2012,07,06,12,38,21.30
2012,07,06,12,39,21.20
2012,07,06,12,40,21.20
2012,07,06,12,41,21.20
2012,07,06,12,42,21.20
2012,07,06,12,43,21.20
2012,07,06,12,44,21.30
2012,07,06,12,45,21.40
2012,07,06,12,46,21.50
2012,07,06,12,47,21.60
2012,07,06,12,48,21.60
2012,07,06,12,49,21.60
2012,07,06,12,50,21.60
2012,07,06,12,51,21.60
2012,07,06,12,52,21.60
2012,07,06,12,53,21.60
2012,07,06,12,54,21.70
2012,07,06,12,55,21.70
2012,07,06,12,56,21.70
2012,07,06,12,57,21.70
2012,07,06,12,58,21.70
2012,07,06,12,59,21.70
2012,07,06,13,00,21.80
2012,07,06,13,01,21.80
2012,07,06,13,02,21.90
2012,07,06,13,03,22.00
2012,07,06,13,04,22.10
2012,07,06,13,05,22.10
2012,07,06,13,06,22.00
2012,07,06,13,07,22.10
2012,07,06,13,08,22.20
2012,07,06,13,09,22.20
2012,07,06,13,10,22.30
2012,07,06,13,11,22.20
2012,07,06,13,12,22.00
2012,07,06,13,13,22.00
2012,07,06,13,14,22.00
2012,07,06,13,15,22.10
2012,07,06,13,16,22.20
2012,07,06,13,17,22.10
2012,07,06,13,18,22.10
2012,07,06,13,19,22.10
2012,07,06,13,20,22.00
2012,07,06,13,21,21.90
2012,07,06,13,22,21.90
2012,07,06,13,23,22.00
2012,07,06,13,24,22.10
2012,07,06,13,25,22.10
2012,07,06,13,26,22.00
2012,07,06,13,27,22.00
2012,07,06,13,28,22.00
2012,07,06,13,29,21.90
2012,07,06,13,30,21.90
2012,07,06,13,31,22.00
2012,07,06,13,32,22.00
2012,07,06,13,33,21.80
2012,07,06,13,34,21.80
2012,07,06,13,35,21.90
2012,07,06,13,36,22.00
2012,07,06,13,37,22.10
2012,07,06,13,38,22.10
2012,07,06,13,39,22.10
2012,07,06,13,40,22.10
2012,07,06,13,41,22.10
2012,07,06,13,42,22.20
2012,07,06,13,43,22.30
2012,07,06,13,44,22.30
2012,07,06,13,45,22.50
2012,07,06,13,46,22.60
2012,07,06,13,47,22.70
2012,07,06,13,48,22.80
2012,07,06,13,49,22.90
2012,07,06,13,50,22.90
2012,07,06,13,51,22.70
2012,07,06,13,52,22.60
2012,07,06,13,53,22.60
2012,07,06,13,54,22.70
2012,07,06,13,55,22.80
2012,07,06,13,56,22.90
2012,07,06,13,57,22.90
2012,07,06,13,58,23.10
2012,07,06,13,59,23.10
2012,07,06,14,00,23.20
2012,07,06,14,01,23.20
2012,07,06,14,02,23.30
2012,07,06,14,03,23.30
2012,07,06,14,04,23.30
2012,07,06,14,05,23.40
2012,07,06,14,06,23.60
2012,07,06,14,07,23.70
2012,07,06,14,08,23.70
2012,07,06,14,09,23.70
2012,07,06,14,10,23.70
2012,07,06,14,11,23.70
2012,07,06,14,12,23.70
2012,07,06,14,13,23.60
2012,07,06,14,14,23.40
2012,07,06,14,15,23.30
2012,07,06,14,16,23.30
2012,07,06,14,17,23.40
2012,07,06,14,18,23.40
2012,07,06,14,19,23.40
2012,07,06,14,20,23.50
2012,07,06,14,21,23.60
2012,07,06,14,22,23.60
2012,07,06,14,23,23.60
2012,07,06,14,24,23.60
2012,07,06,14,25,23.60
2012,07,06,14,26,23.60
2012,07,06,14,27,23.60
2012,07,06,14,28,23.60
2012,07,06,14,29,23.70
2012,07,06,14,30,23.70
2012,07,06,14,31,23.70
2012,07,06,14,32,23.70
2012,07,06,14,33,23.80
2012,07,06,14,34,23.80
2012,07,06,14,35,23.80
2012,07,06,14,36,23.80
2012,07,06,14,37,23.80
2012,07,06,14,38,23.80
2012,07,06,14,39,23.80
2012,07,06,14,40,23.70
2012,07,06,14,41,23.70
2012,07,06,14,42,23.70
2012,07,06,14,43,23.70
2012,07,06,14,44,23.70
2012,07,06,14,45,23.70
2012,07,06,14,46,23.70
2012,07,06,14,47,23.70
2012,07,06,14,48,23.70
2012,07,06,14,49,23.70
2012,07,06,14,50,23.70
2012,07,06,14,51,23.70
2012,07,06,14,52,23.70
2012,07,06,14,53,23.70
2012,07,06,14,54,23.80
2012,07,06,14,55,23.80
2012,07,06,14,56,23.70
2012,07,06,14,57,23.70
2012,07,06,14,58,23.70
2012,07,06,14,59,23.70
2012,07,06,15,00,23.70
2012,07,06,15,01,23.70
2012,07,06,15,02,23.70
2012,07,06,15,03,23.70
2012,07,06,15,04,23.70
2012,07,06,15,05,23.70
2012,07,06,15,06,23.80
2012,07,06,15,07,23.90
2012,07,06,15,08,23.90
2012,07,06,15,09,23.90
2012,07,06,15,10,23.90
2012,07,06,15,11,23.70
2012,07,06,15,12,23.70
2012,07,06,15,13,23.80
2012,07,06,15,14,23.90
2012,07,06,15,15,23.90
2012,07,06,15,16,23.90
2012,07,06,15,17,23.80
2012,07,06,15,18,23.90
2012,07,06,15,19,24.00
2012,07,06,15,20,24.10
2012,07,06,15,21,24.10
2012,07,06,15,22,24.10
2012,07,06,15,23,24.10
2012,07,06,15,24,24.10
2012,07,06,15,25,24.10
2012,07,06,15,26,24.10
2012,07,06,15,27,24.10
2012,07,06,15,28,24.10
2012,07,06,15,29,24.10
2012,07,06,15,30,24.10
2012,07,06,15,31,24.10
2012,07,06,15,32,23.90
2012,07,06,15,33,23.80
2012,07,06,15,34,23.80
2012,07,06,15,35,23.80
2012,07,06,15,36,23.90
2012,07,06,15,37,23.90
2012,07,06,15,38,24.00
2012,07,06,15,39,24.10
2012,07,06,15,40,24.10
2012,07,06,15,41,24.10
2012,07,06,15,42,24.10
2012,07,06,15,43,24.20
2012,07,06,15,44,24.20
2012,07,06,15,45,24.30
2012,07,06,15,46,24.30
2012,07,06,15,47,24.10
2012,07,06,15,48,24.10
2012,07,06,15,49,24.10
2012,07,06,15,50,24.10
2012,07,06,15,51,24.10
2012,07,06,15,52,24.20
2012,07,06,15,53,24.30
2012,07,06,15,54,24.40
2012,07,06,15,55,24.50
2012,07,06,15,56,24.50
2012,07,06,15,57,24.50
2012,07,06,15,58,24.40
2012,07,06,15,59,24.40
2012,07,06,16,00,24.50
2012,07,06,16,01,24.60
2012,07,06,16,02,24.70
2012,07,06,16,03,24.80
2012,07,06,16,04,24.80
2012,07,06,16,05,24.90
2012,07,06,16,06,24.90
2012,07,06,16,07,24.90
2012,07,06,16,08,24.90
2012,07,06,16,09,24.90
2012,07,06,16,10,24.90
2012,07,06,16,11,24.90
2012,07,06,16,12,24.80
2012,07,06,16,13,24.80
2012,07,06,16,14,24.80
2012,07,06,16,15,24.70
2012,07,06,16,16,24.70
2012,07,06,16,17,24.70
2012,07,06,16,18,24.70
2012,07,06,16,19,24.60
2012,07,06,16,20,24.50
2012,07,06,16,21,24.50
2012,07,06,16,22,24.40
2012,07,06,16,23,24.40
2012,07,06,16,24,24.30
2012,07,06,16,25,24.30
2012,07,06,16,26,24.30
2012,07,06,16,27,24.30
2012,07,06,16,28,24.30
2012,07,06,16,29,24.30
2012,07,06,16,30,24.30
2012,07,06,16,31,24.30
2012,07,06,16,32,24.30
2012,07,06,16,33,24.30
2012,07,06,16,34,24.40
2012,07,06,16,35,24.40
2012,07,06,16,36,24.40
2012,07,06,16,37,24.30
2012,07,06,16,38,24.30
2012,07,06,16,39,24.30
2012,07,06,16,40,24.20
2012,07,06,16,41,24.20
2012,07,06,16,42,24.20
2012,07,06,16,43,24.20
2012,07,06,16,44,24.20
2012,07,06,16,45,24.20
2012,07,06,16,46,24.10
2012,07,06,16,47,24.10
2012,07,06,16,48,24.00
2012,07,06,16,49,23.90
2012,07,06,16,50,23.90
2012,07,06,16,51,23.80
2012,07,06,16,52,23.80
2012,07,06,16,53,23.80
2012,07,06,16,54,23.90
2012,07,06,16,55,24.00
2012,07,06,16,56,24.10
2012,07,06,16,57,24.10
2012,07,06,16,58,24.10
2012,07,06,16,59,24.10
2012,07,06,17,00,24.10
2012,07,06,17,01,24.10
2012,07,06,17,02,24.10
2012,07,06,17,03,24.10
2012,07,06,17,04,24.10
2012,07,06,17,05,24.00
2012,07,06,17,06,23.90
2012,07,06,17,07,23.80
2012,07,06,17,08,23.80
2012,07,06,17,09,23.80
2012,07,06,17,10,23.70
2012,07,06,17,11,23.70
2012,07,06,17,12,23.80
2012,07,06,17,13,23.70
2012,07,06,17,14,23.70
2012,07,06,17,15,23.80
2012,07,06,17,16,23.80
2012,07,06,17,17,23.80
2012,07,06,17,18,23.80
2012,07,06,17,19,23.80
2012,07,06,17,20,23.80
2012,07,06,17,21,23.80